Regional Weather Roundup
Issued by NWS

Home | Current Version | Previous Version | Text Only | Print | Product List | Glossary On
Versions: 1 2 3 4 5 6 7 8 9 10 11 12 13 14 15 16 17 18 19 20 21 22 23 24 25 26 27 28 29 30 31 32 33 34 35 36 37 38 39 40 41 42 43 44 45 46 47 48 49 50
000
ASCA44 KEWX 191020
RWRMX

LATIN AMERICA AND CARIBBEAN REGIONAL WEATHER ROUNDUP
NATIONAL WEATHER SERVICE AUSTIN/SAN ANTONIO TX
500 AM CDT SAT AUG 19 2017

NOTE: "FAIR" INDICATED FEW OR NO CLOUDS BELOW 12,000 FEET WITH NO
SIGNIFICANT WEATHER AND/OR OBSTRUCTIONS TO VISIBILITY.

BAJA CALIFORNIA

CITY           SKY/WX    TMP DP  RH WIND       PRES   REMARKS
S.J. DEL CABO    N/A    N/A N/A N/A MISG        N/A
TIJUANA        CLOUDY    64  63  94 CALM      29.98

NORTHWESTERN MEXICO

CITY           SKY/WX    TMP DP  RH WIND       PRES   REMARKS
DURANGO        CLOUDY    61  61 100 CALM      30.28
HERMOSILLO     LGT RAIN  82  73  74 N6        29.93R

NORTHEASTERN MEXICO

CITY           SKY/WX    TMP DP  RH WIND       PRES   REMARKS
MONCLOVA         N/A    N/A N/A N/A MISG        N/A
MONTERREY      MOCLDY    77  70  78 SE6       29.98F
NUEVO LAREDO   CLEAR     79  72  78 S8        29.95
REYNOSA        CLEAR     75  70  83 CALM      29.95
TORREON        PTCLDY    70  63  78 CALM      30.12
CD. VICTORIA     N/A    N/A N/A N/A MISG        N/A

WESTERN MEXICO

CITY           SKY/WX    TMP DP  RH WIND       PRES   REMARKS
AGUASCALIENTES   N/A    N/A N/A N/A MISG        N/A
COLIMA           N/A    N/A N/A N/A MISG        N/A
DEL BAJIO      CLOUDY    59  59 100 CALM      30.31
GUADALAJARA    CLOUDY    64  59  82 E8        30.22R
MAZATLAN       MOCLDY    79  75  89 CALM      29.89S
P. VALLARTA    PTCLDY    79  79 100 NE5       29.88F
URUAPAN          N/A    N/A N/A N/A MISG        N/A
ZACATECAS        N/A    N/A N/A N/A MISG        N/A

CENTRAL MEXICO

CITY           SKY/WX    TMP DP  RH WIND       PRES   REMARKS
CUERNAVACA       N/A    N/A N/A N/A MISG        N/A
MEXICO CITY    MOCLDY    59  54  82 CALM      30.35F
MORELIA        MOCLDY    57  57 100 CALM      30.26F
POZA RICA        N/A    N/A N/A N/A MISG        N/A
QUERETARO      MOCLDY    59  55  88 SE7       30.33F
S. LUIS POTOSI PTCLDY    63  52  67 E5        30.29
TOLUCA         PTCLDY    48  46  93 CALM      30.41

SOUTHERN MEXICO

CITY           SKY/WX    TMP DP  RH WIND       PRES   REMARKS
ACAPULCO       PTCLDY    79  77  94 NW5       29.86F
B. DE HUATULCO   N/A    N/A N/A N/A MISG        N/A
P. ESCONDIDO     N/A    N/A N/A N/A MISG        N/A
VERACRUZ         N/A    N/A N/A N/A MISG        N/A

YUCATAN PENINSULA

CITY           SKY/WX    TMP DP  RH WIND       PRES   REMARKS
CAMPECHE         N/A    N/A N/A N/A MISG        N/A
CANCUN         PTCLDY    73  73 100 CALM      29.94S
CHETUMAL       PTCLDY    75  73  94 CALM      29.91S
CD. DEL CARMEN   N/A    N/A N/A N/A MISG        N/A
COZUMEL        PTCLDY    75  73  94 CALM      29.92R
MERIDA         CLEAR     73  72  94 S5        29.94S
MINATITLAN       N/A    N/A N/A N/A MISG        N/A
TAPACHULA      PTCLDY    75  72  88 CALM      29.84S
VILLAHERMOSA   CLEAR     73  70  88 CALM      29.94F

CENTRAL AMERICA

CITY           SKY/WX    TMP DP  RH WIND       PRES   REMARKS
MANAGUA        MOSUNNY   77  75  94 CALM      29.80S

CARIBBEAN

CITY           SKY/WX    TMP DP  RH WIND       PRES   REMARKS
ARUBA            N/A     84  77  79 NE6       29.77  HX  94
CURACAO        LGT RAIN  82  72  69 NE8       29.80
KINGSTON       PTCLDY    82  73  74 N7        29.86S
NASSAU         LGT RAIN  79  77  94 CALM      29.96F
SAN JUAN       HVY RAIN  82  79  89 E24G30    29.88R HX  93
SANTO DOMINGO  PTCLDY    77  73  88 N6        29.89R
ST. CROIX      PTCLDY    82  77  83 NE12      29.87  HX  91
ST. KITTS      PTCLDY    82  77  83 E12       29.86  HX  91
ST. MAARTEN    PTCLDY    82  79  89 E12       29.86S HX  93
ST. THOMAS     LGT RAIN  81  77  89 E12G23    29.87

$$




USA.gov is the U.S. government's official web portal to all federal, state and local government web resources and services.